(189204) = 2003 ST78

Discovered at Kitt Peak on 2003-09-19 by Spacewatch.

Orbit

Orbit type: Main Belt

Note: WebGL enabled browser required.

epoch2024-03-31.0
epoch JD2460400.5
perihelion date2020-05-07.54737
perihelion JD2458977.04737
argument of perihelion (°)126.84167
ascending node (°)222.69742
inclination (°)6.42135
eccentricity0.1691868
perihelion distance (AU)2.6258912
Tisserand w.r.t. Jupiter3.2
ΔV w.r.t. Earth (km/sec)10.3
semimajor axis (AU)3.1606278
mean anomaly (°)249.68177
mean daily motion (°/day)0.17540580
aphelion distance (AU)3.695
period (years)5.62
P-vector [x]0.97997426
P-vector [y]-0.19879965
P-vector [z]0.01136423
Q-vector [x]0.18411563
Q-vector [y]0.92637077
Q-vector [z]0.32854014
absolute magnitude15.39
phase slope0.15
uncertainty0
referenceMPEC 2024-F07
observations used556
oppositions18
arc length (days)11108
first opposition used1992
last opposition used2023
residual rms (arc-secs)0.69
perturbers coarse indicatorM-v
perturbers precise indicator003Ek
first observation date used1992-10-25.0
last observation date used2023-03-25.0
computer nameMPCLINUX
JD of orbit computation2456966.888483
perihelion JD uncertainty (days)9.6653E-05
argument of perihelion uncertainty (°)5.5431E-05
ascending node uncertainty (°)5.1914E-05
inclination uncertainty (°)8.0383E-06
eccentricity uncertainty 7.0067E-08
perihelion distance uncertainty (AU)2.2513E-07
Minimum Orbit Intersection Distances (in AU)
for orbit epoch: 2460400.5, reference: E2024-G51
Mercury2.25403
Venus1.90972
Earth1.62647
Mars1.25448
Jupiter1.80045
Saturn5.65245
Uranus14.7707
Neptune26.7563

Observations

567 total observations over interval: 1992 10 25.20484 – 2023 03 25.393748
These data are available for download (format description).

Date (UT) J2000 RA J2000 Dec Magn Location Ref
1992 10 25.20484 01 35 11.85 +12 41 42.8 19.0 V 691 – Steward Observatory, Kitt Peak-Spacewatch MPS 172823
1992 10 25.23626 01 35 10.48 +12 41 29.4   691 – Steward Observatory, Kitt Peak-Spacewatch MPS 172823
1992 10 25.25852 01 35 09.53 +12 41 20.3   691 – Steward Observatory, Kitt Peak-Spacewatch MPS 172823
1998 11 20.03564 04 52 11.87 +18 22 45.2 20.1 V 910 – Caussols-ODAS MPS 172823
1998 11 20.06174 04 52 10.58 +18 22 39.3 19.9 V 910 – Caussols-ODAS MPS 172823
1998 11 20.08530 04 52 09.41 +18 22 34.3 20.3 V 910 – Caussols-ODAS MPS 172823
2003 09 04.33844 00 37 41.93 +11 16 49.8 19.4   704 – Lincoln Laboratory ETS, New Mexico MPS 87337
2003 09 04.35104 00 37 41.65 +11 16 47.1 19.8   704 – Lincoln Laboratory ETS, New Mexico MPS 87337
2003 09 04.36370 00 37 41.22 +11 16 45.7 19.7   704 – Lincoln Laboratory ETS, New Mexico MPS 87337
2003 09 19.28092 00 29 31.65 +10 08 47.0 18.8 V 291 – LPL/Spacewatch II MPS 85423
2003 09 19.28676 00 29 31.41 +10 08 45.0 18.8 V 291 – LPL/Spacewatch II MPS 85423
2003 09 19.29095 00 29 31.25 +10 08 43.6 18.8 V 291 – LPL/Spacewatch II MPS 85423
2003 09 20.29681 00 28 51.87 +10 02 50.8 18.5   704 – Lincoln Laboratory ETS, New Mexico MPS 85423
2003 09 20.30929 00 28 51.36 +10 02 46.7 19.1   704 – Lincoln Laboratory ETS, New Mexico MPS 85423
2003 09 20.32178 00 28 50.83 +10 02 42.3 18.9   704 – Lincoln Laboratory ETS, New Mexico MPS 85423
2003 09 20.33451 00 28 50.29 +10 02 37.3 18.8   704 – Lincoln Laboratory ETS, New Mexico MPS 85423
2003 09 20.34706 00 28 49.79 +10 02 33.0 18.8   704 – Lincoln Laboratory ETS, New Mexico MPS 85423
2003 09 23.55759 00 26 40.73 +09 42 51.1 19.8   608 – Haleakala-AMOS MPS 85423
2003 09 23.56797 00 26 40.29 +09 42 47.4 19.4   608 – Haleakala-AMOS MPS 85423
2003 09 23.57849 00 26 39.81 +09 42 43.6 19.3   608 – Haleakala-AMOS MPS 85423
2003 09 24.47910 00 26 03.16 +09 36 58.0 19.7   608 – Haleakala-AMOS MPS 85423
2003 09 24.48973 00 26 02.74 +09 36 53.9 20.2   608 – Haleakala-AMOS MPS 85423
2003 09 24.50047 00 26 02.27 +09 36 49.4 19.8   608 – Haleakala-AMOS MPS 85423
2003 09 27.23417 00 24 09.34 +09 18 50.0 19.0   704 – Lincoln Laboratory ETS, New Mexico MPS 86301
2003 09 27.24721 00 24 08.77 +09 18 44.9 19.5   704 – Lincoln Laboratory ETS, New Mexico MPS 86301
2003 09 27.26017 00 24 08.20 +09 18 39.8 19.5   704 – Lincoln Laboratory ETS, New Mexico MPS 86301
2003 09 27.27325 00 24 07.66 +09 18 34.1 19.4   704 – Lincoln Laboratory ETS, New Mexico MPS 86301
2003 09 27.28639 00 24 07.10 +09 18 29.2 19.5   704 – Lincoln Laboratory ETS, New Mexico MPS 86301
2003 09 29.15686 00 22 49.32 +09 05 44.8 18.2 R 699 – Lowell Observatory-LONEOS MPS 87024
2003 09 29.15770 00 22 49.33 +09 05 44.3 18.3 R 699 – Lowell Observatory-LONEOS MPS 87024
2003 09 29.16521 00 22 49.01 +09 05 41.7   699 – Lowell Observatory-LONEOS MPS 87024
2003 09 29.16604 00 22 48.95 +09 05 41.7   699 – Lowell Observatory-LONEOS MPS 87024
2003 09 29.17354 00 22 48.66 +09 05 38.1   699 – Lowell Observatory-LONEOS MPS 87024
2003 09 29.17436 00 22 48.59 +09 05 38.9   699 – Lowell Observatory-LONEOS MPS 87024
2003 09 29.18182 00 22 48.24 +09 05 35.3   699 – Lowell Observatory-LONEOS MPS 87024
2003 09 29.18268 00 22 48.25 +09 05 35.3   699 – Lowell Observatory-LONEOS MPS 87024
2003 10 06.27236 00 17 56.37 +08 15 24.8 18.7 R 699 – Lowell Observatory-LONEOS MPS 87024
2003 10 06.29229 00 17 55.55 +08 15 15.6   699 – Lowell Observatory-LONEOS MPS 87024
2003 10 06.31215 00 17 54.78 +08 15 07.5   699 – Lowell Observatory-LONEOS MPS 87024
2003 10 06.33202 00 17 53.97 +08 14 58.9   699 – Lowell Observatory-LONEOS MPS 87024
2003 10 14.23521 00 12 55.10 +07 18 03.4 18.4   644 – Palomar Mountain/NEAT MPS 87337
2003 10 14.29801 00 12 52.78 +07 17 36.7 18.5   644 – Palomar Mountain/NEAT MPS 87337
2003 10 14.36502 00 12 50.31 +07 17 08.1 18.5   644 – Palomar Mountain/NEAT MPS 87337
2003 10 15.22587 00 12 20.63 +07 11 01.5 18.6 R 699 – Lowell Observatory-LONEOS MPS 88149
2003 10 15.24585 00 12 19.97 +07 10 52.3   699 – Lowell Observatory-LONEOS MPS 88149
2003 10 15.26572 00 12 19.31 +07 10 44.5   699 – Lowell Observatory-LONEOS MPS 88149
2003 10 15.28561 00 12 18.54 +07 10 35.5   699 – Lowell Observatory-LONEOS MPS 88149
2003 10 21.22916 00 09 12.17 +06 29 41.6 19.7   704 – Lincoln Laboratory ETS, New Mexico MPS 88149
2003 10 21.24089 00 09 11.79 +06 29 37.8 19.4   704 – Lincoln Laboratory ETS, New Mexico MPS 88149
2003 10 21.26406 00 09 11.08 +06 29 29.2 20.1   704 – Lincoln Laboratory ETS, New Mexico MPS 88149
2003 10 21.27575 00 09 10.75 +06 29 24.6 20.1   704 – Lincoln Laboratory ETS, New Mexico MPS 88149
2003 10 25.20185 00 07 28.87 +06 04 03.6 18.9   704 – Lincoln Laboratory ETS, New Mexico MPS 88149
2003 10 25.21401 00 07 28.54 +06 03 59.1 18.9   704 – Lincoln Laboratory ETS, New Mexico MPS 88149
2003 10 25.22620 00 07 28.26 +06 03 54.6 19.1   704 – Lincoln Laboratory ETS, New Mexico MPS 88149
2003 10 25.23851 00 07 27.95 +06 03 50.0 19.0   704 – Lincoln Laboratory ETS, New Mexico MPS 88149
2003 10 25.25063 00 07 27.68 +06 03 45.3 19.5   704 – Lincoln Laboratory ETS, New Mexico MPS 88149
2006 02 07.32004 10 56 20.83 -01 31 23.4   291 – LPL/Spacewatch II MPS 172823
2006 02 07.32401 10 56 20.68 -01 31 22.5   291 – LPL/Spacewatch II MPS 172823
2006 02 07.32783 10 56 20.56 -01 31 21.9   291 – LPL/Spacewatch II MPS 172823
2007 03 15.43264 14 36 32.22 -17 13 45.4 20.7 V G96 – Mt. Lemmon Survey MPS 203015
2007 03 15.44008 14 36 32.11 -17 13 44.6 20.6 V G96 – Mt. Lemmon Survey MPS 203015
2007 03 15.44735 14 36 32.00 -17 13 43.9 20.6 V G96 – Mt. Lemmon Survey MPS 203015
2007 03 15.45461 14 36 31.93 -17 13 42.9 20.6 V G96 – Mt. Lemmon Survey MPS 203015
2007 04 28.28884 14 12 04.36 -14 26 12.1   291 – LPL/Spacewatch II MPS 208046
2007 04 28.29265 14 12 04.18 -14 26 10.8   291 – LPL/Spacewatch II MPS 208046
2007 04 28.29644 14 12 04.02 -14 26 09.5   291 – LPL/Spacewatch II MPS 208046
2007 05 12.27573 14 02 09.13 -13 13 44.7 20.3 V G96 – Mt. Lemmon Survey MPS 208885
2007 05 12.28135 14 02 08.84 -13 13 43.3 20.4 V G96 – Mt. Lemmon Survey MPS 208885
2007 05 12.28699 14 02 08.66 -13 13 41.6 20.5 V G96 – Mt. Lemmon Survey MPS 208885
2007 05 12.29260 14 02 08.44 -13 13 40.1 20.5 V G96 – Mt. Lemmon Survey MPS 208885
2007 05 12.32474 14 02 07.15 -13 13 30.0 20.2 V G96 – Mt. Lemmon Survey MPS 208885
2007 05 12.33204 14 02 06.86 -13 13 27.6 20.4 V G96 – Mt. Lemmon Survey MPS 208885
2007 05 12.33939 14 02 06.54 -13 13 25.5 20.3 V G96 – Mt. Lemmon Survey MPS 208885
2007 05 12.34667 14 02 06.28 -13 13 23.0 20.2 V G96 – Mt. Lemmon Survey MPS 208885
2007 05 13.25663 14 01 30.61 -13 08 50.5 20.5 V G96 – Mt. Lemmon Survey MPS 208885
2007 05 13.26248 14 01 30.36 -13 08 48.6 20.7 V G96 – Mt. Lemmon Survey MPS 208885
2007 05 13.26831 14 01 30.14 -13 08 47.0 20.7 V G96 – Mt. Lemmon Survey MPS 208885
2007 05 13.27419 14 01 29.89 -13 08 45.3 20.8 V G96 – Mt. Lemmon Survey MPS 208885
2008 05 15.40403 20 06 53.71 -13 13 07.9 19.9 V G96 – Mt. Lemmon Survey MPS 249797
2008 05 15.41036 20 06 53.82 -13 13 05.4 20.9 V G96 – Mt. Lemmon Survey MPS 249797
2008 05 15.41671 20 06 53.89 -13 13 03.7 20.7 V G96 – Mt. Lemmon Survey MPS 249797
2008 05 15.42310 20 06 54.03 -13 13 01.6 20.9 V G96 – Mt. Lemmon Survey MPS 249797
2008 07 03.50454 19 56 41.60 -11 12 33.3 19.2 V E12 – Siding Spring Survey MPS 252026
2008 07 03.51448 19 56 41.17 -11 12 33.1 19.8 V E12 – Siding Spring Survey MPS 252026
2008 07 03.52458 19 56 40.70 -11 12 32.9 19.2 V E12 – Siding Spring Survey MPS 252026
2008 07 03.53478 19 56 40.27 -11 12 33.4 19.2 V E12 – Siding Spring Survey MPS 252026
2009 07 31.44231 03 14 27.77 +19 30 01.4 20.9 V 691 – Steward Observatory, Kitt Peak-Spacewatch MPS 291415
2009 07 31.45788 03 14 28.90 +19 30 05.1 21.1 V 691 – Steward Observatory, Kitt Peak-Spacewatch MPS 291415
2009 07 31.47049 03 14 29.82 +19 30 07.6 21.0 V 691 – Steward Observatory, Kitt Peak-Spacewatch MPS 291415
2009 10 14.17031 03 51 55.42 +19 30 45.9 18.8 V J75 – OAM Observatory, La Sagra MPS 299212
2009 10 14.18262 03 51 55.10 +19 30 43.4 19.7 V J75 – OAM Observatory, La Sagra MPS 299212
2009 10 14.19500 03 51 54.80 +19 30 41.1 19.3 V J75 – OAM Observatory, La Sagra MPS 299212
